linux/drivers/watchdog/
<<
>>
Prefs
Kconfig 63141 2017-12-17 14:08:14
Makefile 8051 2017-12-17 14:08:14
acquirewdt.c 8692 2017-12-17 14:08:14
advantechwdt.c 7983 2017-12-17 14:08:14
alim1535_wdt.c 10135 2017-12-17 14:08:14
alim7101_wdt.c 11167 2017-12-17 14:08:14
ar7_wdt.c 7879 2017-12-17 14:08:14
asm9260_wdt.c 9069 2017-12-17 14:08:14
aspeed_wdt.c 8738 2017-12-17 14:08:14
at32ap700x_wdt.c 9841 2017-12-17 14:08:14
at91rm9200_wdt.c 8064 2017-12-17 14:08:14
at91sam9_wdt.c 10960 2017-12-17 14:08:14
at91sam9_wdt.h 1530 2017-12-17 14:08:14
ath79_wdt.c 7593 2017-12-17 14:08:14
atlas7_wdt.c 5981 2017-12-17 14:08:14
bcm2835_wdt.c 7129 2017-12-17 14:08:14
bcm47xx_wdt.c 6133 2017-12-17 14:08:14
bcm63xx_wdt.c 7136 2017-12-17 14:08:14
bcm7038_wdt.c 5906 2017-12-17 14:08:14
bcm_kona_wdt.c 9628 2017-12-17 14:08:14
bfin_wdt.c 10356 2017-12-17 14:08:14
booke_wdt.c 5993 2017-12-17 14:08:14
cadence_wdt.c 13204 2017-12-17 14:08:14
coh901327_wdt.c 12192 2017-12-17 14:08:14
cpu5wdt.c 6802 2017-12-17 14:08:14
cpwd.c 16172 2017-12-17 14:08:14
da9052_wdt.c 5051 2017-12-17 14:08:14
da9055_wdt.c 4360 2017-12-17 14:08:14
da9062_wdt.c 6399 2017-12-17 14:08:14
da9063_wdt.c 4985 2017-12-17 14:08:14
davinci_wdt.c 6733 2017-12-17 14:08:14
diag288_wdt.c 7659 2017-12-17 14:08:14
digicolor_wdt.c 4265 2017-12-17 14:08:14
dw_wdt.c 8185 2017-12-17 14:08:14
ebc-c384_wdt.c 4082 2017-12-17 14:08:14
ep93xx_wdt.c 3773 2017-12-17 14:08:14
eurotechwdt.c 10947 2017-12-17 14:08:14
f71808e_wdt.c 22334 2017-12-17 14:08:14
gef_wdt.c 7672 2017-12-17 14:08:14
gemini_wdt.c 5339 2017-12-17 14:08:14
geodewdt.c 6603 2017-12-17 14:08:14
gpio_wdt.c 4906 2017-12-17 14:08:14
hpwdt.c 22343 2017-12-17 14:08:14
i6300esb.c 12672 2017-12-17 14:08:14
iTCO_vendor.h 719 2017-12-17 14:08:14
iTCO_vendor_support.c 11089 2017-12-17 14:08:14
iTCO_wdt.c 18045 2017-12-17 14:08:14
ib700wdt.c 8519 2017-12-17 14:08:14
ibmasr.c 9628 2017-12-17 14:08:14
ie6xx_wdt.c 8769 2017-12-17 14:08:14
imgpdc_wdt.c 9608 2017-12-17 14:08:14
imx2_wdt.c 12196 2017-12-17 14:08:14
indydog.c 4703 2017-12-17 14:08:14
intel-mid_wdt.c 4670 2017-12-17 14:08:14
intel_scu_watchdog.c 15396 2017-12-17 14:08:14
intel_scu_watchdog.h 2053 2017-12-17 14:08:14
iop_wdt.c 6030 2017-12-17 14:08:14
it8712f_wdt.c 10199 2017-12-17 14:08:14
it87_wdt.c 7893 2017-12-17 14:08:14
ixp4xx_wdt.c 4680 2017-12-17 14:08:14
jz4740_wdt.c 6365 2017-12-17 14:08:14
kempld_wdt.c 14969 2017-12-17 14:08:14
ks8695_wdt.c 7838 2017-12-17 14:08:14
lantiq_wdt.c 7513 2017-12-17 14:08:14
loongson1_wdt.c 4114 2017-12-17 14:08:14
lpc18xx_wdt.c 9313 2017-12-17 14:08:14
m54xx_wdt.c 5130 2017-12-17 14:08:14
machzwd.c 10054 2017-12-17 14:08:14
max63xx_wdt.c 7154 2017-12-17 14:08:14
max77620_wdt.c 5531 2017-12-17 14:08:14
mei_wdt.c 15648 2017-12-17 14:08:14
mena21_wdt.c 5669 2017-12-17 14:08:14
menf21bmc_wdt.c 5492 2017-12-17 14:08:14
meson_gxbb_wdt.c 8132 2017-12-17 14:08:14
meson_wdt.c 6325 2017-12-17 14:08:14
mixcomwd.c 7428 2017-12-17 14:08:14
moxart_wdt.c 4566 2017-12-17 14:08:14
mpc8xxx_wdt.c 6994 2017-12-17 14:08:14
mt7621_wdt.c 4312 2017-12-17 14:08:14
mtk_wdt.c 6862 2017-12-17 14:08:14
mtx-1_wdt.c 6368 2017-12-17 14:08:14
mv64x60_wdt.c 7825 2017-12-17 14:08:14
ni903x_wdt.c 6899 2017-12-17 14:08:14
nic7018_wdt.c 6339 2017-12-17 14:08:14
nuc900_wdt.c 7310 2017-12-17 14:08:14
nv_tco.c 12493 2017-12-17 14:08:14
nv_tco.h 2062 2017-12-17 14:08:14
octeon-wdt-main.c 16868 2017-12-17 14:08:14
octeon-wdt-nmi.S 2042 2021-08-29 15:04:50 -0700
of_xilinx_wdt.c 8234 2017-12-17 14:08:14
omap_wdt.c 9788 2017-12-17 14:08:14
omap_wdt.h 2300 2017-12-17 14:08:14
orion_wdt.c 17000 2017-12-17 14:08:14
pc87413_wdt.c 14375 2017-12-17 14:08:14
pcwd.c 26527 2017-12-17 14:08:14
pcwd_pci.c 20378 2017-12-17 14:08:14
pcwd_usb.c 21656 2017-12-17 14:08:14
pic32-dmt.c 5743 2017-12-17 14:08:14
pic32-wdt.c 6240 2017-12-17 14:08:14
pika_wdt.c 6894 2017-12-17 14:08:14
pnx4008_wdt.c 7267 2017-12-17 14:08:14
pnx833x_wdt.c 7250 2017-12-17 14:08:14
pretimeout_noop.c 1270 2017-12-17 14:08:14
pretimeout_panic.c 1252 2017-12-17 14:08:14
qcom-wdt.c 6550 2017-12-17 14:08:14
rc32434_wdt.c 8324 2017-12-17 14:08:14
rdc321x_wdt.c 7328 2017-12-17 14:08:14
renesas_wdt.c 5891 2017-12-17 14:08:14
retu_wdt.c 4630 2017-12-17 14:08:14
riowd.c 5716 2017-12-17 14:08:14
rn5t618_wdt.c 5299 2017-12-17 14:08:14
rt2880_wdt.c 5061 2017-12-17 14:08:14
rza_wdt.c 4909 2017-12-17 14:08:14
s3c2410_wdt.c 19667 2017-12-17 14:08:14
sa1100_wdt.c 5234 2017-12-17 14:08:14
sama5d4_wdt.c 7981 2017-12-17 14:08:14
sb_wdog.c 8737 2017-12-17 14:08:14
sbc60xxwdt.c 10352 2017-12-17 14:08:14
sbc7240_wdt.c 7049 2017-12-17 14:08:14
sbc8360.c 10039 2017-12-17 14:08:14
sbc_epx_c3.c 5119 2017-12-17 14:08:14
sbc_fitpc2_wdt.c 5377 2017-12-17 14:08:14
sbsa_gwdt.c 11258 2017-12-17 14:08:14
sc1200wdt.c 11405 2017-12-17 14:08:14
sc520_wdt.c 11080 2017-12-17 14:08:14
sch311x_wdt.c 13801 2017-12-17 14:08:14
scx200_wdt.c 6599 2017-12-17 14:08:14
shwdt.c 9322 2017-12-17 14:08:14
sirfsoc_wdt.c 5825 2017-12-17 14:08:14
smsc37b787_wdt.c 15474 2017-12-17 14:08:14
softdog.c 4654 2017-12-17 14:08:14
sp5100_tco.c 15328 2017-12-17 14:08:14
sp5100_tco.h 1771 2017-12-17 14:08:14
sp805_wdt.c 7318 2017-12-17 14:08:14
st_lpc_wdt.c 7474 2017-12-17 14:08:14
stm32_iwdg.c 6397 2017-12-17 14:08:14
stmp3xxx_rtc_wdt.c 4121 2017-12-17 14:08:14
sun4v_wdt.c 4600 2017-12-17 14:08:14
sunxi_wdt.c 8000 2017-12-17 14:08:14
tangox_wdt.c 5226 2017-12-17 14:08:14
tegra_wdt.c 7872 2017-12-17 14:08:14
ts4800_wdt.c 5352 2017-12-17 14:08:14
ts72xx_wdt.c 4415 2017-12-17 14:08:14
twl4030_wdt.c 3873 2017-12-17 14:08:14
txx9wdt.c 4683 2017-12-17 14:08:14
uniphier_wdt.c 6888 2017-12-17 14:08:14
ux500_wdt.c 4104 2017-12-17 14:08:14
via_wdt.c 7638 2017-12-17 14:08:14
w83627hf_wdt.c 10868 2017-12-17 14:08:14
w83877f_wdt.c 10171 2017-12-17 14:08:14
w83977f_wdt.c 12093 2017-12-17 14:08:14
wafer5823wdt.c 7256 2017-12-17 14:08:14
watchdog_core.c 11342 2017-12-17 14:08:14
watchdog_core.h 1330 2017-12-17 14:08:14
watchdog_dev.c 28514 2017-12-17 14:08:14
watchdog_pretimeout.c 4804 2017-12-17 14:08:14
watchdog_pretimeout.h 1684 2021-08-29 15:04:50 -0700
wd501p.h 1598 2017-12-17 14:08:14
wdat_wdt.c 13007 2017-12-17 14:08:14
wdrtas.c 15626 2017-12-17 14:08:14
wdt.c 15849 2017-12-17 14:08:14
wdt285.c 4856 2017-12-17 14:08:14
wdt977.c 12079 2017-12-17 14:08:14
wdt_pci.c 17668 2017-12-17 14:08:14
wm831x_wdt.c 7255 2017-12-17 14:08:14
wm8350_wdt.c 4240 2017-12-17 14:08:14
xen_wdt.c 7630 2017-12-17 14:08:14
ziirave_wdt.c 19780 2017-12-17 14:08:14
zx2967_wdt.c 7184 2017-12-17 14:08:14